Location: São Paulo
(23.5507°S, 46.6334°W)
Time: 13:49:33
(UTC-03:00)

Tiros 1 - Pass Details

Date: 11 February 2026
Orbit: 618 x 649 km, 48.4° (Epoch: 11 March)

Event Time Altitude Azimuth Distance (km) Brightness Sun altitude
Rises 05:49:35 0° 215° (SW) 2,977 10.4 -1.4°
Reaches altitude 10° 05:52:06 10° 207° (SSW) 2,059 9.6 -0.8°
Maximum altitude 05:56:29 37° 139° (SE) 1,013 8.9 0.1°
Drops below altitude 10° 06:00:49 10° 71° (ENE) 2,028 10.8 1.1°
Sets 06:03:16 0° 63° (ENE) 2,926 11.4 1.6°
